This demonstration page uses our WeatherBlox Daily Observations layout. Learn more.

Left ArrowRight Arrow

39.51506, -84.39828

Hourly Observations for March 16, 2017

Temp ( °F °C ) Dew Point ( °F °C ) Humidity (%) Winds ( mph kmh ) Pressure ( in mb ) Visibility ( mi km ) Precip ( " mm )
12:15 am 00:15 Clear 27 -2.8 9 -12.7 47 47 W 3 6 30.39 1029 10 16 0.00 0.00
12:35 am 00:35 Clear 26 -3.5 9 -12.6 50 50 W 3 6 30.39 1029 10 16 0.00 0.00
12:55 am 00:55 Clear 24 -4.2 13 -10.8 60 60 WSW 3 6 30.42 1030 10 16 0.00 0.00
1:15 am 01:15 Clear 23 -5.1 11 -11.5 61 61 WSW 3 6 30.42 1030 10 16 0.00 0.00
1:35 am 01:35 Clear 21 -6.3 11 -11.7 66 66 WSW 3 6 30.39 1029 10 16 0.00 0.00
1:55 am 01:55 Clear 19 -7 11 -11.6 70 70 W 3 6 30.39 1029 10 16 0.00 0.00
2:15 am 02:15 Clear 20 -6.9 12 -11.1 72 72 W 5 7 30.42 1030 10 16 0.00 0.00
2:35 am 02:35 Clear 22 -5.8 10 -12.1 61 61 W 6 9 30.42 1030 10 16 0.00 0.00
2:55 am 02:55 Clear 22 -5.6 10 -12.4 59 59 W 5 7 30.39 1029 10 16 0.00 0.00
3:15 am 03:15 Clear 19 -7 10 -12 68 68 WSW 3 6 30.39 1029 10 16 0.00 0.00
3:35 am 03:35 Clear 19 -7 10 -12.1 67 67 WSW 5 7 30.39 1029 10 16 0.00 0.00
3:55 am 03:55 Clear 22 -5.7 10 -12.1 61 61 WSW 6 9 30.39 1029 10 16 0.00 0.00
4:15 am 04:15 Clear 21 -6.3 10 -12.4 62 62 W 6 9 30.39 1029 10 16 0.00 0.00
4:35 am 04:35 Clear 21 -6.3 10 -12.1 64 64 W 5 7 30.39 1029 10 16 0.00 0.00
4:55 am 04:55 Clear 21 -6.2 10 -12 64 64 W 3 6 30.39 1029 10 16 0.00 0.00
5:15 am 05:15 Clear 20 -6.9 10 -12.3 66 66 W 3 6 30.39 1029 10 16 0.00 0.00
5:35 am 05:35 Clear 21 -6.3 11 -11.6 66 66 W 5 7 30.39 1029 10 16 0.00 0.00
5:55 am 05:55 Clear 22 -5.8 12 -11.2 66 66 W 6 9 30.42 1030 10 16 0.00 0.00
6:15 am 06:15 Clear 22 -5.6 12 -11 66 66 W 5 7 30.42 1030 10 16 0.00 0.00
6:35 am 06:35 Clear 21 -6.2 11 -11.6 66 66 Calm 30.42 1030 10 16 0.00 0.00
6:55 am 06:55 Clear 21 -6.3 11 -11.5 67 67 S 3 6 30.42 1030 10 16 0.00 0.00
7:15 am 07:15 Clear 21 -6 12 -11.3 66 66 S 3 6 30.42 1030 10 16 0.00 0.00
7:35 am 07:35 Clear 21 -6.3 12 -11.3 68 68 S 5 7 30.42 1030 10 16 0.00 0.00
7:55 am 07:55 Sunny 20 -6.6 11 -11.4 69 69 SSW 3 6 30.42 1030 10 16 0.00 0.00
8:15 am 08:15 Sunny 21 -6.3 13 -10.8 71 71 SSW 3 6 30.42 1030 10 16 0.00 0.00
8:35 am 08:35 Sunny 22 -5.4 14 -9.9 71 71 Calm 30.45 1031 10 16 0.00 0.00
8:55 am 08:55 Sunny 24 -4.2 15 -9.4 67 67 SSW 3 6 30.45 1031 10 16 0.00 0.00
9:15 am 09:15 Sunny 25 -3.8 15 -9.3 66 66 SSW 3 6 30.45 1031 10 16 0.00 0.00
9:35 am 09:35 Sunny 27 -2.8 16 -9 63 63 SW 3 6 30.42 1030 10 16 0.00 0.00
9:55 am 09:55 Sunny 29 -1.5 17 -8.3 60 60 SW 3 6 30.42 1030 10 16 0.00 0.00
10:10 am 10:10 Sunny 29 -1.5 15 -9.7 54 54 Calm 30.42 1030 10 16 0.00 0.00
10:35 am 10:35 Sunny 32 0 12 -11.2 43 43 Calm 30.42 1030 10 16 0.00 0.00
10:55 am 10:55 Sunny 34 1.2 13 -10.8 41 41 W 6 9 30.42 1030 10 16 0.00 0.00
11:15 am 11:15 Sunny 34 1.2 10 -12.1 37 37 SSW 7 11 30.42 1030 10 16 0.00 0.00
11:35 am 11:35 Sunny 35 1.4 8 -13.4 33 33 WSW 8 13 30.42 1030 10 16 0.00 0.00
11:55 am 11:55 Sunny 37 2.6 6 -14.6 27 27 WSW 7 11 30.42 1030 10 16 0.00 0.00
12:15 pm 12:15 Sunny 37 2.6 3 -16.2 24 24 WSW 8 13 30.42 1030 10 16 0.00 0.00
12:35 pm 12:35 Sunny 37 2.6 3 -16 24 24 WSW 7 11 30.42 1030 10 16 0.00 0.00
12:55 pm 12:55 Sunny 37 2.7 2 -16.5 23 23 WSW 13 20 30.42 1030 10 16 0.00 0.00
1:15 pm 13:15 Sunny 39 3.7 3 -16.2 22 22 W 9 15 30.42 1030 10 16 0.00 0.00
1:35 pm 13:35 Sunny 39 4 2 -16.6 21 21 W 9 15 30.42 1030 10 16 0.00 0.00
1:55 pm 13:55 Sunny 40 4.4 3 -16.1 21 21 WNW 8 13 30.42 1030 10 16 0.00 0.00
2:15 pm 14:15 Sunny 39 4 1 -17.3 20 20 WSW 5 7 30.39 1029 10 16 0.00 0.00
2:35 pm 14:35 Sunny 40 4.6 0 -17.7 18 18 W 8 13 30.39 1029 10 16 0.00 0.00
2:55 pm 14:55 Sunny 40 4.7 -1 -18.4 17 17 WSW 7 11 30.39 1029 10 16 0.00 0.00
3:15 pm 15:15 Sunny 41 4.9 -2 -18.9 16 16 W 7 11 30.36 1028 10 16 0.00 0.00
3:35 pm 15:35 Sunny 42 5.4 -1 -18.5 16 16 W 6 9 30.36 1028 10 16 0.00 0.00
3:55 pm 15:55 Sunny 41 5.1 -4 -20.1 14 14 Calm 30.36 1028 10 16 0.00 0.00
4:15 pm 16:15 Sunny 42 5.6 -4 -19.8 14 14 WSW 7 11 30.36 1028 10 16 0.00 0.00
4:35 pm 16:35 Sunny 42 5.6 -5 -20.5 13 13 W 10 17 30.36 1028 10 16 0.00 0.00
4:55 pm 16:55 Sunny 42 5.7 -6 -21 13 13 SSW 6 9 30.36 1028 10 16 0.00 0.00
5:15 pm 17:15 Sunny 43 6.1 -3 -19.7 14 14 WSW 9 15 30.36 1028 10 16 0.00 0.00
5:35 pm 17:35 Sunny 42 5.8 -6 -21 13 13 WNW 7 11 30.33 1027 10 16 0.00 0.00
5:55 pm 17:55 Sunny 42 5.5 -7 -21.6 12 12 SW 3 6 30.33 1027 10 16 0.00 0.00
6:15 pm 18:15 Sunny 42 5.8 -4 -20 14 14 W 8 13 30.33 1027 10 16 0.00 0.00
6:35 pm 18:35 Sunny 42 5.5 -4 -20 14 14 WSW 6 9 30.33 1027 10 16 0.00 0.00
6:55 pm 18:55 Sunny 42 5.5 -2 -18.7 16 16 WSW 7 11 30.33 1027 10 16 0.00 0.00
7:15 pm 19:15 Sunny 40 4.7 0 -18 18 18 SW 8 13 30.33 1027 10 16 0.00 0.00
7:35 pm 19:35 Sunny 39 4 1 -17.1 20 20 WSW 6 9 30.33 1027 10 16 0.00 0.00
7:55 pm 19:55 Clear 39 4 2 -16.8 20 20 SW 5 7 30.33 1027 10 16 0.00 0.00
8:15 pm 20:15 Clear 37 2.6 7 -14 29 29 Calm 30.33 1027 10 16 0.00 0.00
8:35 pm 20:35 Clear 34 1.2 11 -11.8 38 38 Calm 30.33 1027 10 16 0.00 0.00
8:55 pm 20:55 Clear 30 -1.3 15 -9.6 54 54 Calm 30.33 1027 10 16 0.00 0.00
9:15 pm 21:15 Clear 32 0 15 -9.5 49 49 Calm 30.33 1027 10 16 0.00 0.00
9:35 pm 21:35 Clear 31 -0.7 15 -9.7 51 51 Calm 30.36 1028 10 16 0.00 0.00
9:55 pm 21:55 Clear 29 -1.5 13 -10.5 51 51 Calm 30.36 1028 10 16 0.00 0.00
10:15 pm 22:15 Clear 29 -1.5 15 -9.6 54 54 Calm 30.36 1028 10 16 0.00 0.00
10:35 pm 22:35 Clear 29 -1.5 14 -10.2 52 52 Calm 30.36 1028 10 16 0.00 0.00
10:55 pm 22:55 Clear 29 -1.5 15 -9.2 56 56 Calm 30.33 1027 10 16 0.00 0.00
11:15 pm 23:15 Clear 29 -1.9 16 -9 59 59 Calm 30.33 1027 10 16 0.00 0.00
11:35 pm 23:35 Clear 29 -1.5 17 -8.6 59 59 Calm 30.33 1027 10 16 0.00 0.00
11:55 pm 23:55 Clear 27 -2.8 15 -9.2 62 62 Calm 30.33 1027 10 16 0.00 0.00

Powered by AerisWeather